Location: Boiro
(42.6475°N, 8.8834°W)
Time: 17:39:44
(UTC+01:00)

Explorer 7 - Pass Details

Date: 09 December 2021
Orbit: 483 x 674 km, 50.3° (Epoch: 20 January)

Event Time Altitude Azimuth Distance (km) Brightness Sun altitude
Rises 11:32:24 0° 297° (WNW) 2,673 9.9 19.3°
Reaches altitude 10° 11:34:45 10° 290° (WNW) 1,751 9.0 19.5°
Maximum altitude 11:38:29 41° 220° (SW) 741 8.0 19.8°
Drops below altitude 10° 11:42:02 10° 149° (SSE) 1,674 11.6 20.1°
Sets 11:44:14 0° 142° (SE) 2,539 11.7 20.3°
